TimeEDT,TemperatureF,Dew PointF,Humidity,Sea Level PressureIn,VisibilityMPH,Wind Direction,Wind SpeedMPH,Gust SpeedMPH,PrecipitationIn,Events,Conditions,WindDirDegrees,DateUTC
12:52 AM,39.9,33.1,77,30.32,10.0,Calm,Calm,-,N/A,,Clear,0,2013-09-17 04:52:00
1:52 AM,37.0,33.1,86,30.34,10.0,Calm,Calm,-,N/A,,Clear,0,2013-09-17 05:52:00
2:52 AM,36.0,33.1,89,30.35,10.0,Calm,Calm,-,N/A,,Clear,0,2013-09-17 06:52:00
3:52 AM,35.1,32.0,89,30.36,10.0,Calm,Calm,-,N/A,,Clear,0,2013-09-17 07:52:00
4:42 AM,33.8,32.0,93,30.34,10.0,Calm,Calm,-,N/A,,Partly Cloudy,0,2013-09-17 08:42:00
4:52 AM,34.0,32.0,92,30.37,10.0,Calm,Calm,-,N/A,,Partly Cloudy,0,2013-09-17 08:52:00
5:52 AM,32.0,30.9,96,30.40,10.0,Calm,Calm,-,N/A,,Partly Cloudy,0,2013-09-17 09:52:00
6:52 AM,32.0,30.9,96,30.43,10.0,Calm,Calm,-,N/A,,Partly Cloudy,0,2013-09-17 10:52:00
7:52 AM,36.0,34.0,93,30.44,10.0,Calm,Calm,-,N/A,,Clear,0,2013-09-17 11:52:00
8:52 AM,45.0,36.0,71,30.45,10.0,Variable,3.5,-,N/A,,Clear,0,2013-09-17 12:52:00
9:52 AM,48.9,35.1,59,30.47,10.0,Variable,4.6,-,N/A,,Clear,0,2013-09-17 13:52:00
10:52 AM,52.0,32.0,47,30.47,10.0,Variable,5.8,-,N/A,,Clear,0,2013-09-17 14:52:00
11:52 AM,54.0,33.1,45,30.46,10.0,Variable,6.9,-,N/A,,Clear,0,2013-09-17 15:52:00
12:52 PM,55.9,35.1,45,30.45,10.0,Variable,5.8,-,N/A,,Clear,0,2013-09-17 16:52:00
1:52 PM,57.9,34.0,41,30.43,10.0,Variable,4.6,-,N/A,,Clear,0,2013-09-17 17:52:00
2:52 PM,59.0,34.0,39,30.41,10.0,Variable,3.5,-,N/A,,Clear,0,2013-09-17 18:52:00
3:52 PM,61.0,34.0,36,30.39,10.0,Variable,3.5,-,N/A,,Clear,0,2013-09-17 19:52:00
4:52 PM,61.0,37.0,41,30.38,10.0,Variable,3.5,-,N/A,,Clear,0,2013-09-17 20:52:00
5:52 PM,59.0,41.0,51,30.38,10.0,Variable,5.8,-,N/A,,Clear,0,2013-09-17 21:52:00
6:52 PM,53.1,46.0,77,30.38,10.0,Calm,Calm,-,N/A,,Clear,0,2013-09-17 22:52:00
7:52 PM,48.0,45.0,89,30.38,10.0,Calm,Calm,-,N/A,,Clear,0,2013-09-17 23:52:00
8:52 PM,46.0,43.0,89,30.39,10.0,Calm,Calm,-,N/A,,Clear,0,2013-09-18 00:52:00
9:52 PM,43.0,41.0,93,30.38,10.0,Calm,Calm,-,N/A,,Clear,0,2013-09-18 01:52:00
10:52 PM,42.1,39.9,92,30.38,10.0,Calm,Calm,-,N/A,,Clear,0,2013-09-18 02:52:00
11:52 PM,41.0,39.0,93,30.38,10.0,Calm,Calm,-,N/A,,Clear,0,2013-09-18 03:52:00